sat.trackr.live / text

‹ back to catalog

ONEWEB-0671

NORAD 55830 · 2023-029AL

PAYLOAD ACTIVE UNKNOWN

§ Identity

Operator
Country
UK
Launch date
2023-03-09
Launch site
AFETR
Launch vehicle
Mass (kg)
RCS (m²)

Purposes: comms

External: N2YO · Heavens-Above · Gunter

§ Orbital elements

Epoch: 2026-09-20T01:29:11.566752Z

Period
109.11 min
Inclination
87.9106°
Eccentricity
0.0002001
Mean motion
13.19724374 rev/d
Perigee alt
1,184.3 km
Apogee alt
1,187.3 km
Semi-major
7,563.9 km
B*
-1.9012e-5
RAAN
286.0704°
Arg perigee
88.3179°
Mean anomaly
271.8183°
Rev number
17,141

§ Raw data

ONEWEB-06711 55830U 23029AL  26263.06193943  .00000005  00000+0 -19012-4 0  99932 55830  87.9106 286.0704 0002001  88.3179 271.8183 13.19724374171415

JSON: /api/v1/satellites/55830 · /tle

For live sub-satellite position, see the globe view (requires WebGL).

§ Visibility from observer

Set your observer location to see the next 7 days of passes ≥ 10°. The values pass through the URL so the page stays shareable.

No JS? Fill the form by hand. The geolocation button needs JavaScript.